Time,TemperatureF,DewpointF,PressureIn,WindDirection,WindDirectionDegrees,WindSpeedMPH,WindSpeedGustMPH,Humidity,HourlyPrecipIn,Conditions,Clouds,dailyrainin,SoftwareType,DateUTC
2013-04-08 00:03:00,40.4,35.0,29.57,West,267,9.0,10.0,81,0.00,,,0.00,WeatherDisplay:10.34,2013-04-08 06:03:00,
2013-04-08 00:08:00,40.4,35.0,29.57,West,273,7.0,8.0,81,0.00,,,0.00,WeatherDisplay:10.34,2013-04-08 06:08:00,
2013-04-08 00:13:00,40.2,35.1,29.57,WSW,240,5.0,7.0,82,0.00,,,0.00,WeatherDisplay:10.34,2013-04-08 06:13:00,
2013-04-08 00:18:00,40.0,34.9,29.57,SW,219,8.0,9.0,82,0.00,,,0.00,WeatherDisplay:10.34,2013-04-08 06:18:00,
2013-04-08 00:23:00,39.7,35.0,29.58,WSW,246,4.0,4.0,83,0.00,,,0.00,WeatherDisplay:10.34,2013-04-08 06:23:00,
2013-04-08 00:28:00,39.4,34.7,29.58,SW,221,2.0,2.0,83,0.00,,,0.00,WeatherDisplay:10.34,2013-04-08 06:28:00,
2013-04-08 00:33:00,39.2,34.8,29.57,WSW,257,3.0,7.0,84,0.00,,,0.00,WeatherDisplay:10.34,2013-04-08 06:33:00,
2013-04-08 00:38:00,39.1,35.0,29.57,WNW,298,3.0,7.0,85,0.00,,,0.00,WeatherDisplay:10.34,2013-04-08 06:38:00,
2013-04-08 00:43:00,39.0,34.9,29.57,WNW,292,7.0,10.0,85,0.00,,,0.00,WeatherDisplay:10.34,2013-04-08 06:43:00,
2013-04-08 00:48:00,39.4,35.3,29.57,West,275,10.0,13.0,85,0.00,,,0.00,WeatherDisplay:10.34,2013-04-08 06:48:00,
2013-04-08 00:53:00,39.8,35.4,29.58,NNW,328,14.0,15.0,84,0.00,,,0.00,WeatherDisplay:10.34,2013-04-08 06:53:00,
2013-04-08 00:58:00,39.9,35.5,29.58,West,279,9.0,12.0,84,0.00,,,0.00,WeatherDisplay:10.34,2013-04-08 06:58:00,
2013-04-08 01:03:00,40.0,35.3,29.58,NW,304,5.0,10.0,83,0.00,,,0.00,WeatherDisplay:10.34,2013-04-08 07:03:00,
2013-04-08 01:08:00,39.9,34.9,29.58,WNW,290,7.0,9.0,82,0.00,,,0.00,WeatherDisplay:10.34,2013-04-08 07:08:00,
2013-04-08 01:13:00,40.0,34.9,29.58,West,269,4.0,13.0,82,0.00,,,0.00,WeatherDisplay:10.34,2013-04-08 07:13:00,
2013-04-08 01:18:00,40.0,34.6,29.59,NW,316,5.0,8.0,81,0.00,,,0.00,WeatherDisplay:10.34,2013-04-08 07:18:00,
2013-04-08 01:23:00,40.0,34.6,29.59,WNW,294,7.0,10.0,81,0.00,,,0.00,WeatherDisplay:10.34,2013-04-08 07:23:00,
2013-04-08 01:28:00,40.0,34.6,29.59,NNW,332,5.0,10.0,81,0.00,,,0.00,WeatherDisplay:10.34,2013-04-08 07:28:00,
2013-04-08 01:33:00,39.9,34.5,29.59,NW,316,8.0,17.0,81,0.00,,,0.00,WeatherDisplay:10.34,2013-04-08 07:33:00,
2013-04-08 01:38:00,39.7,34.7,29.59,NNW,331,9.0,13.0,82,0.00,,,0.00,WeatherDisplay:10.34,2013-04-08 07:38:00,
2013-04-08 01:43:00,39.1,34.4,29.59,NNW,338,11.0,14.0,83,0.00,,,0.00,WeatherDisplay:10.34,2013-04-08 07:43:00,
2013-04-08 01:48:00,38.1,33.7,29.60,West,275,9.0,16.0,84,0.00,,,0.00,WeatherDisplay:10.34,2013-04-08 07:48:00,
2013-04-08 01:54:00,37.0,32.6,29.60,NW,310,13.0,24.0,84,0.00,,,0.00,WeatherDisplay:10.34,2013-04-08 07:54:00,
2013-04-08 01:59:00,36.0,31.9,29.60,West,271,14.0,20.0,85,0.00,,,0.00,WeatherDisplay:10.34,2013-04-08 07:59:00,
2013-04-08 02:04:00,35.4,31.3,29.59,WNW,286,14.0,21.0,85,0.00,,,0.00,WeatherDisplay:10.34,2013-04-08 08:04:00,
2013-04-08 02:09:00,34.8,30.8,29.59,WNW,285,17.0,21.0,85,0.00,,,0.00,WeatherDisplay:10.34,2013-04-08 08:09:00,
2013-04-08 02:15:00,34.2,30.4,29.59,NNW,335,13.0,20.0,86,0.00,,,0.00,WeatherDisplay:10.34,2013-04-08 08:15:00,
2013-04-08 02:20:00,33.7,30.0,29.59,WNW,303,14.0,16.0,86,0.00,,,0.00,WeatherDisplay:10.34,2013-04-08 08:20:00,
2013-04-08 02:25:00,33.3,29.8,29.59,NW,316,19.0,24.0,87,0.00,,,0.00,WeatherDisplay:10.34,2013-04-08 08:25:00,
2013-04-08 02:31:00,33.1,29.7,29.59,West,267,10.0,10.0,87,0.00,,,0.00,WeatherDisplay:10.34,2013-04-08 08:31:00,
2013-04-08 02:36:00,33.1,29.9,29.59,North,355,16.0,17.0,88,0.00,,,0.00,WeatherDisplay:10.34,2013-04-08 08:36:00,
2013-04-08 02:41:00,33.0,29.8,29.61,WNW,284,15.0,17.0,88,0.00,,,0.00,WeatherDisplay:10.34,2013-04-08 08:41:00,
2013-04-08 02:46:00,32.9,29.5,29.61,NW,315,18.0,21.0,87,0.00,,,0.00,WeatherDisplay:10.34,2013-04-08 08:46:00,
2013-04-08 02:51:00,32.8,29.1,29.63,WNW,288,14.0,23.0,86,0.00,,,0.00,WeatherDisplay:10.34,2013-04-08 08:51:00,
2013-04-08 02:56:00,32.8,29.1,29.63,NNE,17,16.0,20.0,86,0.00,,,0.00,WeatherDisplay:10.34,2013-04-08 08:56:00,
2013-04-08 03:01:00,32.5,28.2,29.63,NW,323,15.0,17.0,84,0.00,,,0.00,WeatherDisplay:10.34,2013-04-08 09:01:00,
2013-04-08 03:06:00,32.4,28.1,29.63,NW,326,22.0,22.0,84,0.00,,,0.00,WeatherDisplay:10.34,2013-04-08 09:06:00,
2013-04-08 03:11:00,32.3,28.0,29.63,WNW,303,14.0,16.0,84,0.00,,,0.00,WeatherDisplay:10.34,2013-04-08 09:11:00,
2013-04-08 03:16:00,32.1,27.5,29.63,West,281,16.0,17.0,83,0.00,,,0.00,WeatherDisplay:10.34,2013-04-08 09:16:00,
2013-04-08 03:21:00,31.7,27.1,29.63,NW,325,13.0,22.0,83,0.00,,,0.00,WeatherDisplay:10.34,2013-04-08 09:21:00,
2013-04-08 03:26:00,31.2,26.6,29.63,NNW,347,18.0,18.0,83,0.00,,,0.00,WeatherDisplay:10.34,2013-04-08 09:26:00,
2013-04-08 03:32:00,30.9,26.6,29.63,NNW,328,14.0,20.0,84,0.00,,,0.00,WeatherDisplay:10.34,2013-04-08 09:32:00,
2013-04-08 03:37:00,30.8,26.5,29.63,NNW,338,15.0,16.0,84,0.00,,,0.00,WeatherDisplay:10.34,2013-04-08 09:37:00,
2013-04-08 03:42:00,30.3,26.0,29.63,WNW,290,23.0,25.0,84,0.00,,,0.00,WeatherDisplay:10.34,2013-04-08 09:42:00,
2013-04-08 03:47:00,30.0,25.8,29.63,NNW,346,20.0,25.0,84,0.00,,,0.00,WeatherDisplay:10.34,2013-04-08 09:47:00,
2013-04-08 03:52:00,29.4,25.4,29.63,NW,315,19.0,24.0,85,0.00,,,0.00,WeatherDisplay:10.34,2013-04-08 09:52:00,
2013-04-08 03:57:00,29.3,25.4,29.63,NNW,347,17.0,21.0,85,0.00,,,0.00,WeatherDisplay:10.34,2013-04-08 09:57:00,
2013-04-08 04:02:00,29.3,25.6,29.63,NNW,348,20.0,25.0,86,0.00,,,0.00,WeatherDisplay:10.34,2013-04-08 10:02:00,
2013-04-08 04:07:00,29.3,25.4,29.63,NNW,336,20.0,22.0,85,0.00,,,0.00,WeatherDisplay:10.34,2013-04-08 10:07:00,
2013-04-08 04:12:00,29.2,25.3,29.63,WNW,302,13.0,15.0,85,0.00,,,0.00,WeatherDisplay:10.34,2013-04-08 10:12:00,
2013-04-08 04:17:00,29.0,25.1,29.63,NNW,344,17.0,20.0,85,0.00,,,0.00,WeatherDisplay:10.34,2013-04-08 10:17:00,
2013-04-08 04:22:00,28.9,25.0,29.64,SW,229,17.0,20.0,85,0.00,,,0.00,WeatherDisplay:10.34,2013-04-08 10:22:00,
2013-04-08 04:28:00,28.8,25.1,29.64,NNW,334,14.0,16.0,86,0.00,,,0.00,WeatherDisplay:10.34,2013-04-08 10:28:00,
2013-04-08 04:33:00,28.8,24.9,29.65,West,280,18.0,22.0,85,0.00,,,0.00,WeatherDisplay:10.34,2013-04-08 10:33:00,
2013-04-08 04:38:00,28.6,24.7,29.65,NNW,331,18.0,23.0,85,0.00,,,0.00,WeatherDisplay:10.34,2013-04-08 10:38:00,
2013-04-08 04:43:00,28.5,24.6,29.65,NW,311,16.0,22.0,85,0.00,,,0.00,WeatherDisplay:10.34,2013-04-08 10:43:00,
2013-04-08 04:48:00,28.3,24.4,29.65,NW,309,17.0,17.0,85,0.00,,,0.00,WeatherDisplay:10.34,2013-04-08 10:48:00,
2013-04-08 04:53:00,28.1,24.2,29.65,NW,322,20.0,26.0,85,0.00,,,0.00,WeatherDisplay:10.34,2013-04-08 10:53:00,
2013-04-08 04:58:00,28.0,24.1,29.65,NNW,327,13.0,23.0,85,0.00,,,0.00,WeatherDisplay:10.34,2013-04-08 10:58:00,
2013-04-08 05:04:00,28.1,24.2,29.65,North,360,16.0,25.0,85,0.00,,,0.00,WeatherDisplay:10.34,2013-04-08 11:04:00,
2013-04-08 05:09:00,27.9,23.7,29.65,NNW,340,14.0,22.0,84,0.00,,,0.00,WeatherDisplay:10.34,2013-04-08 11:09:00,
2013-04-08 05:14:00,27.8,23.6,29.66,WNW,284,17.0,29.0,84,0.00,,,0.00,WeatherDisplay:10.34,2013-04-08 11:14:00,
2013-04-08 05:19:00,27.7,23.5,29.66,NW,311,20.0,26.0,84,0.00,,,0.00,WeatherDisplay:10.34,2013-04-08 11:19:00,
2013-04-08 05:24:00,27.6,23.4,29.66,NW,310,15.0,22.0,84,0.00,,,0.00,WeatherDisplay:10.34,2013-04-08 11:24:00,
2013-04-08 05:29:00,27.6,23.4,29.66,NW,324,13.0,17.0,84,0.00,,,0.00,WeatherDisplay:10.34,2013-04-08 11:29:00,
2013-04-08 05:34:00,27.4,23.5,29.66,NW,304,16.0,20.0,85,0.00,,,0.00,WeatherDisplay:10.34,2013-04-08 11:34:00,
2013-04-08 05:39:00,27.3,23.4,29.66,NW,316,20.0,25.0,85,0.00,,,0.00,WeatherDisplay:10.34,2013-04-08 11:39:00,
2013-04-08 05:44:00,27.2,23.3,29.66,NW,315,24.0,26.0,85,0.00,,,0.00,WeatherDisplay:10.34,2013-04-08 11:44:00,
2013-04-08 05:50:00,27.1,23.2,29.66,NNW,330,20.0,21.0,85,0.00,,,0.00,WeatherDisplay:10.34,2013-04-08 11:50:00,
2013-04-08 05:55:00,27.0,23.1,29.66,WNW,296,19.0,26.0,85,0.00,,,0.00,WeatherDisplay:10.34,2013-04-08 11:55:00,
2013-04-08 06:00:00,26.9,23.0,29.66,WNW,299,16.0,22.0,85,0.00,OVC,OVC,0.00,WeatherDisplay:10.34,2013-04-08 12:00:00,
2013-04-08 06:05:00,26.9,23.0,29.65,NW,309,25.0,33.0,85,0.00,OVC,OVC,0.00,WeatherDisplay:10.34,2013-04-08 12:05:00,
2013-04-08 06:10:00,26.9,23.0,29.64,WNW,294,23.0,32.0,85,0.00,OVC,OVC,0.00,WeatherDisplay:10.34,2013-04-08 12:10:00,
2013-04-08 06:15:00,26.9,23.3,29.64,NW,314,19.0,29.0,86,0.00,OVC,OVC,0.00,WeatherDisplay:10.34,2013-04-08 12:15:00,
2013-04-08 06:20:00,26.9,23.3,29.64,NW,324,22.0,22.0,86,0.00,OVC,OVC,0.00,WeatherDisplay:10.34,2013-04-08 12:20:00,
2013-04-08 06:25:00,26.8,23.2,29.66,West,278,16.0,20.0,86,0.00,OVC,OVC,0.00,WeatherDisplay:10.34,2013-04-08 12:25:00,
2013-04-08 06:30:00,26.7,23.1,29.66,NNW,341,13.0,13.0,86,0.00,OVC,OVC,0.00,WeatherDisplay:10.34,2013-04-08 12:30:00,
2013-04-08 06:35:00,26.6,23.0,29.69,NW,315,18.0,18.0,86,0.00,OVC,OVC,0.00,WeatherDisplay:10.34,2013-04-08 12:35:00,
2013-04-08 06:40:00,26.5,22.9,29.70,NNE,19,20.0,20.0,86,0.00,OVC,OVC,0.00,WeatherDisplay:10.34,2013-04-08 12:40:00,
2013-04-08 06:45:00,26.4,22.8,29.71,NW,314,16.0,21.0,86,0.00,OVC,OVC,0.00,WeatherDisplay:10.34,2013-04-08 12:45:00,
2013-04-08 06:50:00,26.3,22.7,29.72,NNW,331,19.0,19.0,86,0.00,OVC,OVC,0.00,WeatherDisplay:10.34,2013-04-08 12:50:00,
2013-04-08 06:55:00,26.2,22.6,29.72,NW,313,13.0,13.0,86,0.00,OVC,OVC,0.00,WeatherDisplay:10.34,2013-04-08 12:55:00,
2013-04-08 07:00:00,26.2,22.6,29.72,NNW,336,18.0,24.0,86,0.00,OVC,OVC,0.00,WeatherDisplay:10.34,2013-04-08 13:00:00,
2013-04-08 07:05:00,26.3,22.4,29.72,NW,323,24.0,24.0,85,0.00,OVC,OVC,0.00,WeatherDisplay:10.34,2013-04-08 13:05:00,
2013-04-08 07:10:00,26.3,22.1,29.74,WNW,286,17.0,24.0,84,0.00,OVC,OVC,0.00,WeatherDisplay:10.34,2013-04-08 13:10:00,
2013-04-08 07:15:00,26.2,22.0,29.74,North,5,19.0,22.0,84,0.00,OVC,OVC,0.00,WeatherDisplay:10.34,2013-04-08 13:15:00,
2013-04-08 07:20:00,26.1,21.9,29.74,NNW,331,15.0,28.0,84,0.00,CLR,CLR,0.00,WeatherDisplay:10.34,2013-04-08 13:20:00,
2013-04-08 07:25:00,26.0,21.5,29.74,NW,321,16.0,29.0,83,0.00,CLR,CLR,0.00,WeatherDisplay:10.34,2013-04-08 13:25:00,
2013-04-08 07:30:00,25.9,21.4,29.74,NNW,327,22.0,24.0,83,0.00,CLR,CLR,0.00,WeatherDisplay:10.34,2013-04-08 13:30:00,
2013-04-08 07:35:00,25.9,21.4,29.74,West,278,14.0,22.0,83,0.00,CLR,CLR,0.00,WeatherDisplay:10.34,2013-04-08 13:35:00,
2013-04-08 07:40:00,25.8,21.3,29.75,WNW,287,18.0,23.0,83,0.00,CLR,CLR,0.00,WeatherDisplay:10.34,2013-04-08 13:40:00,
2013-04-08 07:45:00,25.8,21.3,29.75,NW,321,17.0,17.0,83,0.00,CLR,CLR,0.00,WeatherDisplay:10.34,2013-04-08 13:45:00,
2013-04-08 07:50:00,26.0,21.5,29.75,NNW,338,14.0,16.0,83,0.00,CLR,CLR,0.00,WeatherDisplay:10.34,2013-04-08 13:50:00,
2013-04-08 07:55:00,26.1,21.4,29.75,NW,311,18.0,25.0,82,0.00,CLR,CLR,0.00,WeatherDisplay:10.34,2013-04-08 13:55:00,
2013-04-08 08:00:00,26.2,21.5,29.76,NNW,333,10.0,26.0,82,0.00,CLR,CLR,0.00,WeatherDisplay:10.34,2013-04-08 14:00:00,
2013-04-08 08:05:00,26.2,21.5,29.76,North,360,20.0,20.0,82,0.00,CLR,CLR,0.00,WeatherDisplay:10.34,2013-04-08 14:05:00,
2013-04-08 08:10:00,26.2,21.2,29.76,WNW,294,20.0,20.0,81,0.00,FEW,FEW,0.00,WeatherDisplay:10.34,2013-04-08 14:10:00,
2013-04-08 08:15:00,26.2,20.9,29.76,NE,44,14.0,26.0,80,0.00,FEW,FEW,0.00,WeatherDisplay:10.34,2013-04-08 14:15:00,
2013-04-08 08:20:00,26.2,20.9,29.75,WNW,295,17.0,17.0,80,0.00,FEW,FEW,0.00,WeatherDisplay:10.34,2013-04-08 14:20:00,
2013-04-08 08:25:00,26.3,20.7,29.75,NW,325,16.0,17.0,79,0.00,FEW,FEW,0.00,WeatherDisplay:10.34,2013-04-08 14:25:00,
2013-04-08 08:30:00,26.4,20.8,29.75,WNW,296,12.0,13.0,79,0.00,FEW,FEW,0.00,WeatherDisplay:10.34,2013-04-08 14:30:00,
2013-04-08 08:35:00,26.6,20.7,29.75,NNW,333,21.0,22.0,78,0.00,SCT,SCT,0.00,WeatherDisplay:10.34,2013-04-08 14:35:00,
2013-04-08 08:40:00,26.6,20.7,29.76,West,273,19.0,19.0,78,0.00,SCT,SCT,0.00,WeatherDisplay:10.34,2013-04-08 14:40:00,
2013-04-08 08:45:00,26.3,20.4,29.76,WNW,290,15.0,17.0,78,0.00,BKN,BKN,0.00,WeatherDisplay:10.34,2013-04-08 14:45:00,
2013-04-08 08:50:00,26.2,20.3,29.77,North,349,12.0,14.0,78,0.00,OVC,OVC,0.00,WeatherDisplay:10.34,2013-04-08 14:50:00,
2013-04-08 08:55:00,26.2,20.0,29.77,NNW,341,14.0,20.0,77,0.00,BKN,BKN,0.00,WeatherDisplay:10.34,2013-04-08 14:55:00,
2013-04-08 09:00:00,26.1,19.9,29.77,NNW,330,13.0,13.0,77,0.00,BKN,BKN,0.00,WeatherDisplay:10.34,2013-04-08 15:00:00,
2013-04-08 09:05:00,26.1,19.9,29.77,WNW,297,22.0,23.0,77,0.00,OVC,OVC,0.00,WeatherDisplay:10.34,2013-04-08 15:05:00,
2013-04-08 09:10:00,25.8,19.3,29.77,NNW,345,21.0,25.0,76,0.00,OVC,OVC,0.00,WeatherDisplay:10.34,2013-04-08 15:10:00,
2013-04-08 09:15:00,25.8,19.6,29.77,NNW,329,17.0,25.0,77,0.00,BKN,BKN,0.00,WeatherDisplay:10.34,2013-04-08 15:15:00,
2013-04-08 09:20:00,25.8,19.6,29.78,West,275,18.0,21.0,77,0.00,BKN,BKN,0.00,WeatherDisplay:10.34,2013-04-08 15:20:00,
2013-04-08 09:26:00,25.9,19.7,29.78,WNW,289,16.0,21.0,77,0.00,BKN,BKN,0.00,WeatherDisplay:10.34,2013-04-08 15:26:00,
2013-04-08 09:31:00,25.8,19.6,29.77,WSW,256,15.0,15.0,77,0.00,BKN,BKN,0.00,WeatherDisplay:10.34,2013-04-08 15:31:00,
2013-04-08 09:36:00,25.9,19.4,29.77,WNW,301,23.0,31.0,76,0.00,BKN,BKN,0.00,WeatherDisplay:10.34,2013-04-08 15:36:00,
2013-04-08 09:41:00,26.0,19.8,29.77,North,360,17.0,17.0,77,0.00,BKN,BKN,0.00,WeatherDisplay:10.34,2013-04-08 15:41:00,
2013-04-08 09:46:00,26.0,19.8,29.77,NW,321,23.0,28.0,77,0.00,BKN,BKN,0.00,WeatherDisplay:10.34,2013-04-08 15:46:00,
2013-04-08 09:51:00,26.1,19.9,29.78,West,281,20.0,26.0,77,0.00,BKN,BKN,0.00,WeatherDisplay:10.34,2013-04-08 15:51:00,
2013-04-08 09:56:00,26.1,19.9,29.78,NNW,338,19.0,24.0,77,0.00,BKN,BKN,0.00,WeatherDisplay:10.34,2013-04-08 15:56:00,
2013-04-08 10:01:00,26.2,20.0,29.78,West,277,17.0,33.0,77,0.00,BKN,BKN,0.00,WeatherDisplay:10.34,2013-04-08 16:01:00,
2013-04-08 10:06:00,26.3,20.1,29.78,NW,321,16.0,31.0,77,0.00,BKN,BKN,0.00,WeatherDisplay:10.34,2013-04-08 16:06:00,
2013-04-08 10:12:00,26.4,20.2,29.78,NW,306,12.0,17.0,77,0.00,BKN,BKN,0.00,WeatherDisplay:10.34,2013-04-08 16:12:00,
2013-04-08 10:17:00,26.3,20.1,29.78,WNW,288,16.0,16.0,77,0.00,BKN,BKN,0.00,WeatherDisplay:10.34,2013-04-08 16:17:00,
2013-04-08 10:22:00,26.3,19.8,29.79,WNW,303,30.0,37.0,76,0.00,BKN,BKN,0.00,WeatherDisplay:10.34,2013-04-08 16:22:00,
2013-04-08 10:27:00,26.1,19.9,29.79,NW,305,22.0,26.0,77,0.00,BKN,BKN,0.00,WeatherDisplay:10.34,2013-04-08 16:27:00,
2013-04-08 10:32:00,26.0,19.8,29.80,West,260,14.0,26.0,77,0.00,BKN,BKN,0.00,WeatherDisplay:10.34,2013-04-08 16:32:00,
2013-04-08 10:37:00,26.0,19.5,29.80,WNW,295,16.0,32.0,76,0.00,BKN,BKN,0.00,WeatherDisplay:10.34,2013-04-08 16:37:00,
2013-04-08 10:42:00,26.0,19.5,29.81,WNW,287,21.0,26.0,76,0.00,BKN,BKN,0.00,WeatherDisplay:10.34,2013-04-08 16:42:00,
2013-04-08 10:47:00,25.8,19.0,29.81,NW,318,19.0,25.0,75,0.00,BKN,BKN,0.00,WeatherDisplay:10.34,2013-04-08 16:47:00,
2013-04-08 10:52:00,25.7,18.9,29.82,NNW,334,21.0,26.0,75,0.00,BKN,BKN,0.00,WeatherDisplay:10.34,2013-04-08 16:52:00,
2013-04-08 10:58:00,25.5,18.7,29.82,NW,314,18.0,20.0,75,0.00,BKN,BKN,0.00,WeatherDisplay:10.34,2013-04-08 16:58:00,
2013-04-08 11:03:00,25.2,18.4,29.82,WNW,292,18.0,21.0,75,0.00,BKN,BKN,0.00,WeatherDisplay:10.34,2013-04-08 17:03:00,
2013-04-08 11:08:00,25.2,18.4,29.82,West,277,16.0,22.0,75,0.00,BKN,BKN,0.00,WeatherDisplay:10.34,2013-04-08 17:08:00,
2013-04-08 11:13:00,25.2,18.7,29.81,ESE,113,20.0,22.0,76,0.00,OVC,OVC,0.00,WeatherDisplay:10.34,2013-04-08 17:13:00,
2013-04-08 11:18:00,25.0,18.2,29.81,NW,325,22.0,29.0,75,0.00,OVC,OVC,0.00,WeatherDisplay:10.34,2013-04-08 17:18:00,
2013-04-08 11:23:00,24.8,18.3,29.82,West,279,29.0,35.0,76,0.00,OVC,OVC,0.00,WeatherDisplay:10.34,2013-04-08 17:23:00,
2013-04-08 11:28:00,24.4,18.5,29.82,NW,311,24.0,33.0,78,0.00,OVC,OVC,0.00,WeatherDisplay:10.34,2013-04-08 17:28:00,
2013-04-08 11:33:00,24.3,18.7,29.83,WSW,246,21.0,28.0,79,0.00,OVC,OVC,0.00,WeatherDisplay:10.34,2013-04-08 17:33:00,
2013-04-08 11:38:00,24.3,18.7,29.83,NW,311,23.0,23.0,79,0.00,BKN,BKN,0.00,WeatherDisplay:10.34,2013-04-08 17:38:00,
2013-04-08 11:43:00,24.1,18.5,29.83,NNW,344,20.0,36.0,79,0.00,OVC,OVC,0.00,WeatherDisplay:10.34,2013-04-08 17:43:00,
2013-04-08 11:49:00,24.0,18.1,29.83,NW,323,24.0,29.0,78,0.00,OVC,OVC,0.00,WeatherDisplay:10.34,2013-04-08 17:49:00,
2013-04-08 11:54:00,23.9,18.0,29.83,NW,313,25.0,31.0,78,0.00,OVC,OVC,0.00,WeatherDisplay:10.34,2013-04-08 17:54:00,
2013-04-08 11:59:00,23.9,17.7,29.83,WSW,248,21.0,26.0,77,0.00,BKN,BKN,0.00,WeatherDisplay:10.34,2013-04-08 17:59:00,
2013-04-08 12:04:00,24.1,17.9,29.83,NNW,334,26.0,31.0,77,0.00,BKN,BKN,0.00,WeatherDisplay:10.34,2013-04-08 18:04:00,
2013-04-08 12:09:00,23.9,17.4,29.83,NW,312,24.0,35.0,76,0.00,BKN,BKN,0.00,WeatherDisplay:10.34,2013-04-08 18:09:00,
2013-04-08 12:14:00,24.1,17.6,29.82,WNW,298,16.0,26.0,76,0.00,BKN,BKN,0.00,WeatherDisplay:10.34,2013-04-08 18:14:00,
2013-04-08 12:19:00,24.4,17.6,29.82,NNW,340,22.0,29.0,75,0.00,BKN,BKN,0.00,WeatherDisplay:10.34,2013-04-08 18:19:00,
2013-04-08 12:25:00,24.2,17.1,29.83,NW,320,19.0,20.0,74,0.00,BKN,BKN,0.00,WeatherDisplay:10.34,2013-04-08 18:25:00,
2013-04-08 12:30:00,24.1,16.7,29.83,NNW,338,22.0,25.0,73,0.00,OVC,OVC,0.00,WeatherDisplay:10.34,2013-04-08 18:30:00,
2013-04-08 12:35:00,24.0,16.6,29.83,NW,318,22.0,24.0,73,0.00,OVC,OVC,0.00,WeatherDisplay:10.34,2013-04-08 18:35:00,
2013-04-08 12:40:00,24.2,16.8,29.83,NNW,327,27.0,38.0,73,0.00,OVC,OVC,0.00,WeatherDisplay:10.34,2013-04-08 18:40:00,
2013-04-08 12:45:00,23.8,16.4,29.84,NNW,343,25.0,33.0,73,0.00,OVC,OVC,0.00,WeatherDisplay:10.34,2013-04-08 18:45:00,
2013-04-08 12:50:00,23.9,16.5,29.84,WNW,298,21.0,21.0,73,0.00,OVC,OVC,0.00,WeatherDisplay:10.34,2013-04-08 18:50:00,
2013-04-08 12:55:00,23.6,15.6,29.84,NW,305,23.0,29.0,71,0.00,OVC,OVC,0.00,WeatherDisplay:10.34,2013-04-08 18:55:00,
2013-04-08 13:00:00,23.6,15.6,29.84,NNW,346,21.0,32.0,71,0.00,OVC,OVC,0.00,WeatherDisplay:10.34,2013-04-08 19:00:00,
2013-04-08 13:06:00,23.6,15.2,29.84,NNW,343,23.0,25.0,70,0.00,OVC,OVC,0.00,WeatherDisplay:10.34,2013-04-08 19:06:00,
2013-04-08 13:11:00,23.2,14.9,29.83,NW,313,26.0,32.0,70,0.00,OVC,OVC,0.00,WeatherDisplay:10.34,2013-04-08 19:11:00,
2013-04-08 13:17:00,23.1,15.1,29.83,NNW,335,22.0,25.0,71,0.00,OVC,OVC,0.00,WeatherDisplay:10.34,2013-04-08 19:17:00,
2013-04-08 13:22:00,23.0,14.7,29.83,NW,321,21.0,23.0,70,0.00,OVC,OVC,0.00,WeatherDisplay:10.34,2013-04-08 19:22:00,
2013-04-08 13:27:00,23.0,14.7,29.83,NW,310,24.0,24.0,70,0.00,OVC,OVC,0.00,WeatherDisplay:10.34,2013-04-08 19:27:00,
2013-04-08 13:32:00,22.9,14.2,29.84,WNW,292,21.0,22.0,69,0.00,OVC,OVC,0.00,WeatherDisplay:10.34,2013-04-08 19:32:00,
2013-04-08 13:37:00,23.0,14.7,29.84,West,281,18.0,18.0,70,0.00,OVC,OVC,0.00,WeatherDisplay:10.34,2013-04-08 19:37:00,
2013-04-08 13:42:00,22.9,14.6,29.84,NNW,348,19.0,25.0,70,0.00,OVC,OVC,0.00,WeatherDisplay:10.34,2013-04-08 19:42:00,
2013-04-08 13:47:00,23.1,14.8,29.84,NNW,346,18.0,24.0,70,0.00,OVC,OVC,0.00,WeatherDisplay:10.34,2013-04-08 19:47:00,
2013-04-08 13:52:00,23.0,14.7,29.85,NW,323,24.0,29.0,70,0.00,OVC,OVC,0.00,WeatherDisplay:10.34,2013-04-08 19:52:00,
2013-04-08 13:57:00,23.2,14.5,29.85,WNW,300,25.0,29.0,69,0.00,OVC,OVC,0.00,WeatherDisplay:10.34,2013-04-08 19:57:00,
2013-04-08 14:03:00,23.1,14.4,29.85,WNW,290,25.0,25.0,69,0.00,OVC,OVC,0.00,WeatherDisplay:10.34,2013-04-08 20:03:00,
2013-04-08 14:08:00,23.0,14.0,29.84,NNE,26,25.0,31.0,68,0.00,OVC,OVC,0.00,WeatherDisplay:10.34,2013-04-08 20:08:00,
2013-04-08 14:13:00,22.7,13.7,29.84,West,263,19.0,28.0,68,0.00,OVC,OVC,0.00,WeatherDisplay:10.34,2013-04-08 20:13:00,
2013-04-08 14:18:00,22.8,13.8,29.84,West,265,22.0,25.0,68,0.00,OVC,OVC,0.00,WeatherDisplay:10.34,2013-04-08 20:18:00,
2013-04-08 14:23:00,22.6,14.3,29.86,WSW,249,22.0,25.0,70,0.00,OVC,OVC,0.00,WeatherDisplay:10.34,2013-04-08 20:23:00,
2013-04-08 14:28:00,22.6,14.6,29.86,NNW,343,16.0,16.0,71,0.00,OVC,OVC,0.00,WeatherDisplay:10.34,2013-04-08 20:28:00,
2013-04-08 14:33:00,22.7,15.0,29.87,West,268,23.0,26.0,72,0.00,OVC,OVC,0.00,WeatherDisplay:10.34,2013-04-08 20:33:00,
2013-04-08 14:38:00,22.4,14.7,29.87,WNW,303,27.0,29.0,72,0.00,OVC,OVC,0.00,WeatherDisplay:10.34,2013-04-08 20:38:00,
2013-04-08 14:43:00,22.5,15.1,29.87,NNE,24,16.0,25.0,73,0.00,OVC,OVC,0.00,WeatherDisplay:10.34,2013-04-08 20:43:00,
2013-04-08 14:48:00,22.4,15.1,29.87,WNW,294,21.0,24.0,73,0.00,OVC,OVC,0.00,WeatherDisplay:10.34,2013-04-08 20:48:00,
2013-04-08 14:53:00,22.3,15.0,29.88,NNW,344,24.0,29.0,73,0.00,OVC,OVC,0.00,WeatherDisplay:10.34,2013-04-08 20:53:00,
2013-04-08 14:58:00,22.0,14.7,29.88,NW,313,25.0,26.0,73,0.00,OVC,OVC,0.00,WeatherDisplay:10.34,2013-04-08 20:58:00,
2013-04-08 15:03:00,21.9,15.2,29.88,NNW,331,18.0,23.0,75,0.00,OVC,OVC,0.00,WeatherDisplay:10.34,2013-04-08 21:03:00,
2013-04-08 15:08:00,21.6,14.9,29.88,WNW,295,19.0,21.0,75,0.00,OVC,OVC,0.00,WeatherDisplay:10.34,2013-04-08 21:08:00,
2013-04-08 15:13:00,21.6,15.5,29.88,NW,315,18.0,24.0,77,0.00,OVC,OVC,0.00,WeatherDisplay:10.34,2013-04-08 21:13:00,
2013-04-08 15:18:00,21.8,16.0,29.88,WNW,292,26.0,32.0,78,0.00,OVC,OVC,0.00,WeatherDisplay:10.34,2013-04-08 21:18:00,
2013-04-08 15:23:00,21.5,15.7,29.89,North,5,21.0,26.0,78,0.00,OVC,OVC,0.00,WeatherDisplay:10.34,2013-04-08 21:23:00,
2013-04-08 15:28:00,21.3,15.8,29.89,NW,312,16.0,32.0,79,0.00,OVC,OVC,0.00,WeatherDisplay:10.34,2013-04-08 21:28:00,
2013-04-08 15:33:00,21.3,16.1,29.89,NW,304,19.0,25.0,80,0.00,OVC,OVC,0.00,WeatherDisplay:10.34,2013-04-08 21:33:00,
2013-04-08 15:39:00,21.3,16.4,29.89,WNW,299,20.0,24.0,81,0.00,OVC,OVC,0.00,WeatherDisplay:10.34,2013-04-08 21:39:00,
2013-04-08 15:44:00,21.3,16.4,29.89,WNW,287,17.0,23.0,81,0.00,OVC,OVC,0.00,WeatherDisplay:10.34,2013-04-08 21:44:00,
2013-04-08 15:50:00,21.2,16.3,29.90,West,279,17.0,25.0,81,0.00,OVC,OVC,0.00,WeatherDisplay:10.34,2013-04-08 21:50:00,
2013-04-08 15:55:00,21.0,15.8,29.90,NNW,342,19.0,24.0,80,0.00,OVC,OVC,0.00,WeatherDisplay:10.34,2013-04-08 21:55:00,
2013-04-08 16:00:00,21.0,15.8,29.90,NW,321,14.0,15.0,80,0.00,OVC,OVC,0.00,WeatherDisplay:10.34,2013-04-08 22:00:00,
2013-04-08 16:05:00,20.9,15.7,29.90,North,355,20.0,26.0,80,0.00,OVC,OVC,0.00,WeatherDisplay:10.34,2013-04-08 22:05:00,
2013-04-08 16:10:00,20.9,16.0,29.89,NNW,329,17.0,17.0,81,0.00,OVC,OVC,0.00,WeatherDisplay:10.34,2013-04-08 22:10:00,
2013-04-08 16:15:00,21.0,16.1,29.89,WSW,250,23.0,23.0,81,0.00,OVC,OVC,0.00,WeatherDisplay:10.34,2013-04-08 22:15:00,
2013-04-08 16:20:00,21.1,16.2,29.90,WSW,256,18.0,18.0,81,0.00,OVC,OVC,0.00,WeatherDisplay:10.34,2013-04-08 22:20:00,
2013-04-08 16:25:00,21.0,15.8,29.90,WNW,292,16.0,22.0,80,0.00,OVC,OVC,0.00,WeatherDisplay:10.34,2013-04-08 22:25:00,
2013-04-08 16:30:00,21.1,16.2,29.90,NNW,336,22.0,22.0,81,0.00,OVC,OVC,0.00,WeatherDisplay:10.34,2013-04-08 22:30:00,
2013-04-08 16:35:00,21.1,15.9,29.90,North,355,17.0,22.0,80,0.00,OVC,OVC,0.00,WeatherDisplay:10.34,2013-04-08 22:35:00,
2013-04-08 16:40:00,21.0,15.8,29.92,North,355,14.0,14.0,80,0.00,OVC,OVC,0.00,WeatherDisplay:10.34,2013-04-08 22:40:00,
2013-04-08 16:45:00,20.9,15.7,29.92,North,360,14.0,20.0,80,0.00,OVC,OVC,0.00,WeatherDisplay:10.34,2013-04-08 22:45:00,
2013-04-08 16:50:00,20.8,15.6,29.93,North,350,17.0,22.0,80,0.00,OVC,OVC,0.00,WeatherDisplay:10.34,2013-04-08 22:50:00,
2013-04-08 16:55:00,20.6,15.4,29.93,NW,304,21.0,24.0,80,0.00,OVC,OVC,0.00,WeatherDisplay:10.34,2013-04-08 22:55:00,
2013-04-08 17:00:00,20.4,15.2,29.93,NNW,327,16.0,22.0,80,0.00,OVC,OVC,0.00,WeatherDisplay:10.34,2013-04-08 23:00:00,
2013-04-08 17:05:00,20.6,15.4,29.93,NW,325,18.0,18.0,80,0.00,OVC,OVC,0.00,WeatherDisplay:10.34,2013-04-08 23:05:00,
2013-04-08 17:11:00,20.5,15.6,29.94,NW,309,18.0,23.0,81,0.00,OVC,OVC,0.00,WeatherDisplay:10.34,2013-04-08 23:11:00,
2013-04-08 17:16:00,20.5,15.6,29.94,North,10,12.0,14.0,81,0.00,OVC,OVC,0.00,WeatherDisplay:10.34,2013-04-08 23:16:00,
2013-04-08 17:21:00,20.3,15.1,29.95,WNW,295,14.0,16.0,80,0.00,OVC,OVC,0.00,WeatherDisplay:10.34,2013-04-08 23:21:00,
2013-04-08 17:26:00,20.0,14.8,29.95,NW,322,14.0,25.0,80,0.00,OVC,OVC,0.00,WeatherDisplay:10.34,2013-04-08 23:26:00,
2013-04-08 17:31:00,19.8,14.9,29.95,WSW,241,23.0,25.0,81,0.00,OVC,OVC,0.00,WeatherDisplay:10.34,2013-04-08 23:31:00,
2013-04-08 17:36:00,19.7,14.8,29.95,NW,309,23.0,25.0,81,0.00,OVC,OVC,0.00,WeatherDisplay:10.34,2013-04-08 23:36:00,
2013-04-08 17:41:00,19.7,14.8,29.95,WNW,290,20.0,23.0,81,0.00,OVC,OVC,0.00,WeatherDisplay:10.34,2013-04-08 23:41:00,
2013-04-08 17:46:00,19.6,14.7,29.95,NNW,339,14.0,16.0,81,0.00,OVC,OVC,0.00,WeatherDisplay:10.34,2013-04-08 23:46:00,
2013-04-08 17:51:00,19.5,14.6,29.98,North,360,16.0,16.0,81,0.00,OVC,OVC,0.00,WeatherDisplay:10.34,2013-04-08 23:51:00,
2013-04-08 17:56:00,19.4,14.8,29.98,NNW,334,19.0,22.0,82,0.00,OVC,OVC,0.00,WeatherDisplay:10.34,2013-04-08 23:56:00,
2013-04-08 18:01:00,19.1,14.5,29.98,West,271,13.0,17.0,82,0.00,OVC,OVC,0.00,WeatherDisplay:10.34,2013-04-09 00:01:00,
2013-04-08 18:06:00,19.1,14.8,29.98,NW,311,19.0,24.0,83,0.00,OVC,OVC,0.00,WeatherDisplay:10.34,2013-04-09 00:06:00,
2013-04-08 18:11:00,19.0,14.4,29.98,NNW,348,23.0,28.0,82,0.00,OVC,OVC,0.00,WeatherDisplay:10.34,2013-04-09 00:11:00,
2013-04-08 18:16:00,18.9,14.3,29.98,WNW,290,15.0,15.0,82,0.00,OVC,OVC,0.00,WeatherDisplay:10.34,2013-04-09 00:16:00,
2013-04-08 18:21:00,19.0,14.4,29.98,WNW,294,16.0,20.0,82,0.00,OVC,OVC,0.00,WeatherDisplay:10.34,2013-04-09 00:21:00,
2013-04-08 18:26:00,19.1,14.5,29.98,WNW,288,15.0,20.0,82,0.00,OVC,OVC,0.00,WeatherDisplay:10.34,2013-04-09 00:26:00,
2013-04-08 18:31:00,19.1,14.8,29.99,NW,319,17.0,22.0,83,0.00,OVC,OVC,0.00,WeatherDisplay:10.34,2013-04-09 00:31:00,
2013-04-08 18:36:00,19.0,14.7,29.99,WNW,297,10.0,14.0,83,0.00,OVC,OVC,0.00,WeatherDisplay:10.34,2013-04-09 00:36:00,
2013-04-08 18:41:00,18.9,14.6,29.99,WNW,283,19.0,26.0,83,0.00,OVC,OVC,0.00,WeatherDisplay:10.34,2013-04-09 00:41:00,
2013-04-08 18:46:00,18.6,14.3,30.00,WNW,294,20.0,22.0,83,0.00,OVC,OVC,0.00,WeatherDisplay:10.34,2013-04-09 00:46:00,
2013-04-08 18:51:00,18.6,14.6,30.00,WNW,300,15.0,21.0,84,0.00,OVC,OVC,0.00,WeatherDisplay:10.34,2013-04-09 00:51:00,
2013-04-08 18:56:00,18.6,14.6,30.00,WNW,303,15.0,15.0,84,0.00,OVC,OVC,0.00,WeatherDisplay:10.34,2013-04-09 00:56:00,
2013-04-08 19:01:00,18.6,14.6,30.00,West,277,18.0,28.0,84,0.00,OVC,OVC,0.00,WeatherDisplay:10.34,2013-04-09 01:01:00,
2013-04-08 19:06:00,18.6,14.6,30.00,WNW,294,13.0,21.0,84,0.00,OVC,OVC,0.00,WeatherDisplay:10.34,2013-04-09 01:06:00,
2013-04-08 19:11:00,18.4,14.4,30.00,NW,325,15.0,22.0,84,0.00,OVC,OVC,0.00,WeatherDisplay:10.34,2013-04-09 01:11:00,
2013-04-08 19:17:00,18.4,14.6,30.00,NW,321,19.0,22.0,85,0.00,OVC,OVC,0.00,WeatherDisplay:10.34,2013-04-09 01:17:00,
2013-04-08 19:22:00,18.3,14.5,30.01,WNW,288,12.0,16.0,85,0.00,OVC,OVC,0.00,WeatherDisplay:10.34,2013-04-09 01:22:00,
2013-04-08 19:27:00,18.2,14.4,30.01,NW,304,13.0,17.0,85,0.00,OVC,OVC,0.00,WeatherDisplay:10.34,2013-04-09 01:27:00,
2013-04-08 19:32:00,18.2,14.4,30.01,WNW,300,17.0,22.0,85,0.00,OVC,OVC,0.00,WeatherDisplay:10.34,2013-04-09 01:32:00,
2013-04-08 19:37:00,18.2,14.7,30.01,NW,319,18.0,22.0,86,0.00,OVC,OVC,0.00,WeatherDisplay:10.34,2013-04-09 01:37:00,
2013-04-08 19:43:00,18.3,14.8,30.01,West,277,15.0,15.0,86,0.00,OVC,OVC,0.00,WeatherDisplay:10.34,2013-04-09 01:43:00,
2013-04-08 19:48:00,18.3,14.8,30.02,NW,321,20.0,26.0,86,0.00,OVC,OVC,0.00,WeatherDisplay:10.34,2013-04-09 01:48:00,
2013-04-08 19:53:00,18.2,14.7,30.02,NNW,344,13.0,14.0,86,0.00,OVC,OVC,0.00,WeatherDisplay:10.34,2013-04-09 01:53:00,
2013-04-08 19:58:00,18.2,14.7,30.02,NNW,341,10.0,12.0,86,0.00,OVC,OVC,0.00,WeatherDisplay:10.34,2013-04-09 01:58:00,
2013-04-08 20:03:00,18.2,14.7,30.02,WNW,292,15.0,24.0,86,0.00,CLR,CLR,0.00,WeatherDisplay:10.34,2013-04-09 02:03:00,
2013-04-08 20:08:00,18.2,14.7,30.02,NW,306,14.0,17.0,86,0.00,CLR,CLR,0.00,WeatherDisplay:10.34,2013-04-09 02:08:00,
2013-04-08 20:13:00,18.3,14.5,30.02,NW,326,12.0,16.0,85,0.00,CLR,CLR,0.00,WeatherDisplay:10.34,2013-04-09 02:13:00,
2013-04-08 20:18:00,18.3,14.5,30.02,West,275,17.0,23.0,85,0.00,CLR,CLR,0.00,WeatherDisplay:10.34,2013-04-09 02:18:00,
2013-04-08 20:23:00,18.3,14.5,30.02,NW,323,15.0,15.0,85,0.00,CLR,CLR,0.00,WeatherDisplay:10.34,2013-04-09 02:23:00,
2013-04-08 20:28:00,18.4,14.6,30.02,WNW,302,11.0,22.0,85,0.00,CLR,CLR,0.00,WeatherDisplay:10.34,2013-04-09 02:28:00,
2013-04-08 20:33:00,18.4,14.9,30.03,WNW,290,17.0,23.0,86,0.00,CLR,CLR,0.00,WeatherDisplay:10.34,2013-04-09 02:33:00,
2013-04-08 20:38:00,18.5,15.0,30.03,West,265,12.0,12.0,86,0.00,CLR,CLR,0.00,WeatherDisplay:10.34,2013-04-09 02:38:00,
2013-04-08 20:43:00,18.5,14.7,30.03,WNW,300,9.0,10.0,85,0.00,CLR,CLR,0.00,WeatherDisplay:10.34,2013-04-09 02:43:00,
2013-04-08 20:48:00,18.4,14.6,30.03,West,273,16.0,23.0,85,0.00,CLR,CLR,0.00,WeatherDisplay:10.34,2013-04-09 02:48:00,
2013-04-08 20:53:00,18.4,14.6,30.03,WNW,283,11.0,13.0,85,0.00,CLR,CLR,0.00,WeatherDisplay:10.34,2013-04-09 02:53:00,
2013-04-08 20:58:00,18.4,14.6,30.03,NNW,333,17.0,20.0,85,0.00,CLR,CLR,0.00,WeatherDisplay:10.34,2013-04-09 02:58:00,
2013-04-08 21:03:00,18.4,14.6,30.03,WSW,252,13.0,15.0,85,0.00,CLR,CLR,0.00,WeatherDisplay:10.34,2013-04-09 03:03:00,
2013-04-08 21:08:00,18.4,14.6,30.04,WNW,291,12.0,15.0,85,0.00,CLR,CLR,0.00,WeatherDisplay:10.34,2013-04-09 03:08:00,
2013-04-08 21:13:00,18.3,14.5,30.04,NW,323,15.0,16.0,85,0.00,CLR,CLR,0.00,WeatherDisplay:10.34,2013-04-09 03:13:00,
2013-04-08 21:18:00,18.3,14.5,30.04,WNW,283,15.0,16.0,85,0.00,CLR,CLR,0.00,WeatherDisplay:10.34,2013-04-09 03:18:00,
2013-04-08 21:23:00,18.3,14.8,30.04,NW,308,14.0,17.0,86,0.00,CLR,CLR,0.00,WeatherDisplay:10.34,2013-04-09 03:23:00,
2013-04-08 21:28:00,18.2,14.7,30.04,NNW,338,15.0,16.0,86,0.00,CLR,CLR,0.00,WeatherDisplay:10.34,2013-04-09 03:28:00,
2013-04-08 21:33:00,18.2,14.7,30.05,NW,304,20.0,25.0,86,0.00,CLR,CLR,0.00,WeatherDisplay:10.34,2013-04-09 03:33:00,
2013-04-08 21:38:00,18.3,14.5,30.05,NNW,329,13.0,16.0,85,0.00,CLR,CLR,0.00,WeatherDisplay:10.34,2013-04-09 03:38:00,
2013-04-08 21:43:00,18.4,14.6,30.05,NW,319,13.0,20.0,85,0.00,CLR,CLR,0.00,WeatherDisplay:10.34,2013-04-09 03:43:00,
2013-04-08 21:48:00,18.4,14.6,30.05,NNW,342,15.0,21.0,85,0.00,CLR,CLR,0.00,WeatherDisplay:10.34,2013-04-09 03:48:00,
2013-04-08 21:53:00,18.5,14.7,30.05,West,262,13.0,16.0,85,0.00,CLR,CLR,0.00,WeatherDisplay:10.34,2013-04-09 03:53:00,
2013-04-08 21:58:00,18.6,14.6,30.05,NNW,333,13.0,16.0,84,0.00,CLR,CLR,0.00,WeatherDisplay:10.34,2013-04-09 03:58:00,
2013-04-08 22:00:00,18.6,14.6,30.05,NW,311,10.0,17.0,84,0.00,CLR,CLR,0.00,WeatherDisplay:10.34,2013-04-09 04:00:00,
2013-04-08 22:02:00,18.6,14.3,30.05,NNW,330,19.0,23.0,83,0.00,CLR,CLR,0.00,WeatherDisplay:10.34,2013-04-09 04:02:00,
2013-04-08 22:05:00,18.6,14.3,30.05,NW,322,14.0,22.0,83,0.00,CLR,CLR,0.00,WeatherDisplay:10.34,2013-04-09 04:05:00,
2013-04-08 22:10:00,18.6,14.0,30.05,NW,308,17.0,17.0,82,0.00,CLR,CLR,0.00,WeatherDisplay:10.34,2013-04-09 04:10:00,
2013-04-08 22:15:00,18.7,14.1,30.05,WNW,295,15.0,21.0,82,0.00,CLR,CLR,0.00,WeatherDisplay:10.34,2013-04-09 04:15:00,
2013-04-08 22:20:00,18.8,14.2,30.05,NW,324,13.0,13.0,82,0.00,CLR,CLR,0.00,WeatherDisplay:10.34,2013-04-09 04:20:00,
2013-04-08 22:25:00,18.8,14.2,30.05,NW,318,17.0,17.0,82,0.00,CLR,CLR,0.00,WeatherDisplay:10.34,2013-04-09 04:25:00,
2013-04-08 22:30:00,18.7,14.1,30.06,NW,319,17.0,17.0,82,0.00,CLR,CLR,0.00,WeatherDisplay:10.34,2013-04-09 04:30:00,
2013-04-08 22:35:00,18.7,14.1,30.06,North,355,16.0,25.0,82,0.00,CLR,CLR,0.00,WeatherDisplay:10.34,2013-04-09 04:35:00,
2013-04-08 22:40:00,18.6,14.0,30.06,West,265,20.0,0.0,82,0.00,CLR,CLR,0.00,WeatherDisplay:10.34,2013-04-09 04:40:00,
2013-04-08 22:45:00,18.6,14.0,30.06,WNW,294,14.0,23.0,82,0.00,CLR,CLR,0.00,WeatherDisplay:10.34,2013-04-09 04:45:00,
2013-04-08 22:50:00,18.6,14.0,30.06,NNW,334,15.0,16.0,82,0.00,CLR,CLR,0.00,WeatherDisplay:10.34,2013-04-09 04:50:00,
2013-04-08 22:56:00,18.6,14.0,30.06,NNW,343,15.0,22.0,82,0.00,CLR,CLR,0.00,WeatherDisplay:10.34,2013-04-09 04:56:00,
2013-04-08 23:01:00,18.5,15.8,30.06,NW,314,9.0,13.0,89,0.00,CLR,CLR,0.00,WeatherDisplay:10.34,2013-04-09 05:01:00,
2013-04-08 23:06:00,18.5,13.6,30.06,NW,311,11.0,16.0,81,0.00,CLR,CLR,0.00,WeatherDisplay:10.34,2013-04-09 05:06:00,
2013-04-08 23:11:00,18.4,13.5,30.05,NW,311,15.0,17.0,81,0.00,CLR,CLR,0.00,WeatherDisplay:10.34,2013-04-09 05:11:00,
2013-04-08 23:16:00,18.4,13.5,30.05,NW,304,14.0,14.0,81,0.00,CLR,CLR,0.00,WeatherDisplay:10.34,2013-04-09 05:16:00,
2013-04-08 23:21:00,18.4,13.5,30.05,NW,319,15.0,20.0,81,0.00,CLR,CLR,0.00,WeatherDisplay:10.34,2013-04-09 05:21:00,
2013-04-08 23:26:00,18.4,13.5,30.05,NNW,344,18.0,22.0,81,0.00,CLR,CLR,0.00,WeatherDisplay:10.34,2013-04-09 05:26:00,
2013-04-08 23:31:00,18.3,13.4,30.05,WNW,290,11.0,13.0,81,0.00,CLR,CLR,0.00,WeatherDisplay:10.34,2013-04-09 05:31:00,
2013-04-08 23:36:00,18.3,13.4,30.05,NW,325,14.0,17.0,81,0.00,CLR,CLR,0.00,WeatherDisplay:10.34,2013-04-09 05:36:00,
2013-04-08 23:41:00,18.4,13.5,30.05,NW,323,16.0,17.0,81,0.00,CLR,CLR,0.00,WeatherDisplay:10.34,2013-04-09 05:41:00,
2013-04-08 23:46:00,18.4,13.5,30.06,West,281,18.0,23.0,81,0.00,CLR,CLR,0.00,WeatherDisplay:10.34,2013-04-09 05:46:00,
2013-04-08 23:51:00,18.4,13.5,30.05,NNW,346,11.0,12.0,81,0.00,CLR,CLR,0.00,WeatherDisplay:10.34,2013-04-09 05:51:00,
2013-04-08 23:56:00,18.4,13.5,30.05,WSW,255,15.0,20.0,81,0.00,CLR,CLR,0.00,WeatherDisplay:10.34,2013-04-09 05:56:00,